TimeMST,TemperatureF,Dew PointF,Humidity,Sea Level PressureIn,VisibilityMPH,Wind Direction,Wind SpeedMPH,Gust SpeedMPH,PrecipitationIn,Events,Conditions,WindDirDegrees,DateUTC
12:53 AM,35.1,27.0,72,30.26,10.0,West,3.5,-,N/A,,Clear,270,2012-12-04 07:53:00
1:53 AM,34.0,26.1,73,30.26,10.0,West,5.8,-,N/A,,Clear,270,2012-12-04 08:53:00
2:53 AM,32.0,24.1,73,30.29,10.0,West,4.6,-,N/A,,Clear,280,2012-12-04 09:53:00
3:53 AM,28.9,23.0,78,30.31,10.0,Calm,Calm,-,N/A,,Clear,0,2012-12-04 10:53:00
4:53 AM,25.0,19.9,81,30.34,10.0,Calm,Calm,-,N/A,,Clear,0,2012-12-04 11:53:00
5:53 AM,25.0,19.0,78,30.39,10.0,NNE,3.5,-,N/A,,Clear,20,2012-12-04 12:53:00
6:53 AM,26.1,18.0,71,30.43,10.0,East,6.9,-,N/A,,Clear,90,2012-12-04 13:53:00
7:53 AM,26.1,18.0,71,30.46,10.0,NE,4.6,-,N/A,,Clear,50,2012-12-04 14:53:00
8:53 AM,30.9,19.0,61,30.50,10.0,ENE,3.5,-,N/A,,Clear,60,2012-12-04 15:53:00
9:53 AM,35.1,24.1,64,30.49,10.0,East,8.1,-,N/A,,Clear,100,2012-12-04 16:53:00
10:53 AM,39.0,26.1,60,30.46,10.0,ESE,8.1,-,N/A,,Clear,120,2012-12-04 17:53:00
11:53 AM,44.1,25.0,47,30.44,10.0,ESE,4.6,-,N/A,,Clear,120,2012-12-04 18:53:00
12:53 PM,48.9,21.0,33,30.40,10.0,Calm,Calm,-,N/A,,Clear,0,2012-12-04 19:53:00
1:53 PM,51.1,18.0,27,30.37,10.0,Calm,Calm,-,N/A,,Clear,0,2012-12-04 20:53:00
2:53 PM,53.1,18.0,25,30.36,10.0,West,4.6,-,N/A,,Clear,270,2012-12-04 21:53:00
3:53 PM,53.1,19.9,27,30.37,10.0,West,5.8,-,N/A,,Clear,280,2012-12-04 22:53:00
4:53 PM,46.9,19.0,33,30.40,10.0,West,4.6,-,N/A,,Clear,270,2012-12-04 23:53:00
5:53 PM,45.0,19.9,37,30.40,10.0,West,5.8,-,N/A,,Clear,260,2012-12-05 00:53:00
6:53 PM,42.1,19.0,40,30.43,10.0,Calm,Calm,-,N/A,,Clear,0,2012-12-05 01:53:00
7:53 PM,36.0,18.0,48,30.47,10.0,Calm,Calm,-,N/A,,Clear,0,2012-12-05 02:53:00
8:53 PM,35.1,19.9,54,30.45,10.0,East,5.8,-,N/A,,Clear,80,2012-12-05 03:53:00
9:53 PM,33.1,18.0,54,30.44,10.0,NNE,4.6,-,N/A,,Clear,30,2012-12-05 04:53:00
10:53 PM,33.1,19.9,59,30.41,10.0,ENE,9.2,-,N/A,,Clear,70,2012-12-05 05:53:00
11:53 PM,34.0,19.9,56,30.38,10.0,East,8.1,-,N/A,,Clear,80,2012-12-05 06:53:00